Time,TemperatureF,DewpointF,PressureIn,WindDirection,WindDirectionDegrees,WindSpeedMPH,WindSpeedGustMPH,Humidity,HourlyPrecipIn,Conditions,Clouds,dailyrainin,SoftwareType,DateUTC
2013-05-01 00:02:00,73.7,71.0,29.93,East,101,5.0,-999.0,90,-99.99,,,0.00,weatherlink.com 1.10,2013-05-01 04:02:00,
2013-05-01 00:17:00,73.1,70.0,29.93,East,90,7.0,-999.0,91,-99.99,,,0.00,weatherlink.com 1.10,2013-05-01 04:17:00,
2013-05-01 00:32:00,73.1,70.0,29.93,East,86,5.0,-999.0,91,-99.99,,,0.00,weatherlink.com 1.10,2013-05-01 04:32:00,
2013-05-01 00:47:00,73.3,71.0,29.92,East,87,7.0,-999.0,91,-99.99,,,0.00,weatherlink.com 1.10,2013-05-01 04:47:00,
2013-05-01 01:02:00,73.5,71.0,29.92,ESE,123,4.0,-999.0,91,-99.99,,,0.00,weatherlink.com 1.10,2013-05-01 05:02:00,
2013-05-01 01:17:00,73.7,71.0,29.92,East,99,0.0,-999.0,91,-99.99,,,0.00,weatherlink.com 1.10,2013-05-01 05:17:00,
2013-05-01 01:32:00,74.0,71.0,29.91,ESE,107,6.0,-999.0,91,-99.99,,,0.00,weatherlink.com 1.10,2013-05-01 05:32:00,
2013-05-01 01:47:00,74.1,71.0,29.91,East,88,9.0,-999.0,91,-99.99,,,0.00,weatherlink.com 1.10,2013-05-01 05:47:00,
2013-05-01 02:02:00,74.3,72.0,29.89,East,88,2.0,-999.0,92,-99.99,,,0.00,weatherlink.com 1.10,2013-05-01 06:02:00,
2013-05-01 02:17:00,74.4,72.0,29.89,East,98,9.0,-999.0,92,-99.99,,,0.00,weatherlink.com 1.10,2013-05-01 06:17:00,
2013-05-01 02:32:00,74.3,72.0,29.88,East,90,9.0,-999.0,92,-99.99,,,0.00,weatherlink.com 1.10,2013-05-01 06:32:00,
2013-05-01 02:47:00,74.3,72.0,29.88,ESE,108,2.0,-999.0,92,-99.99,,,0.00,weatherlink.com 1.10,2013-05-01 06:47:00,
2013-05-01 03:02:00,74.1,72.0,29.88,SE,137,5.0,-999.0,92,-99.99,,,0.00,weatherlink.com 1.10,2013-05-01 07:02:00,
2013-05-01 03:17:00,74.0,72.0,29.87,ESE,113,2.0,-999.0,92,-99.99,,,0.00,weatherlink.com 1.10,2013-05-01 07:17:00,
2013-05-01 03:32:00,74.0,71.0,29.87,East,91,9.0,-999.0,91,-99.99,,,0.00,weatherlink.com 1.10,2013-05-01 07:32:00,
2013-05-01 03:47:00,73.7,71.0,29.87,SE,127,6.0,-999.0,92,-99.99,,,0.00,weatherlink.com 1.10,2013-05-01 07:47:00,
2013-05-01 04:02:00,73.9,72.0,29.88,ESE,123,2.0,-999.0,92,-99.99,,,0.00,weatherlink.com 1.10,2013-05-01 08:02:00,
2013-05-01 04:17:00,73.9,72.0,29.88,ESE,115,2.0,-999.0,92,-99.99,,,0.00,weatherlink.com 1.10,2013-05-01 08:17:00,
2013-05-01 04:32:00,74.0,72.0,29.87,ESE,107,10.0,-999.0,92,-99.99,,,0.00,weatherlink.com 1.10,2013-05-01 08:32:00,
2013-05-01 04:47:00,73.9,72.0,29.86,East,99,6.0,-999.0,92,-99.99,,,0.00,weatherlink.com 1.10,2013-05-01 08:47:00,
2013-05-01 05:02:00,74.0,72.0,29.87,ESE,123,6.0,-999.0,92,-99.99,,,0.00,weatherlink.com 1.10,2013-05-01 09:02:00,
2013-05-01 05:17:00,73.9,72.0,29.87,East,91,5.0,-999.0,92,-99.99,,,0.00,weatherlink.com 1.10,2013-05-01 09:17:00,
2013-05-01 05:32:00,74.0,71.0,29.87,East,88,8.0,-999.0,91,-99.99,,,0.00,weatherlink.com 1.10,2013-05-01 09:32:00,
2013-05-01 05:47:00,74.1,72.0,29.87,East,87,9.0,-999.0,92,-99.99,,,0.00,weatherlink.com 1.10,2013-05-01 09:47:00,
2013-05-01 06:02:00,74.1,72.0,29.88,East,90,5.0,-999.0,92,-99.99,,,0.00,weatherlink.com 1.10,2013-05-01 10:02:00,
2013-05-01 06:17:00,73.9,71.0,29.88,East,100,2.0,-999.0,91,-99.99,,,0.00,weatherlink.com 1.10,2013-05-01 10:17:00,
2013-05-01 06:32:00,73.6,71.0,29.90,SE,145,1.0,-999.0,92,-99.99,,,0.00,weatherlink.com 1.10,2013-05-01 10:32:00,
2013-05-01 06:47:00,73.6,71.0,29.91,East,87,1.0,-999.0,92,-99.99,,,0.00,weatherlink.com 1.10,2013-05-01 10:47:00,
2013-05-01 07:02:00,73.6,71.0,29.91,ESE,123,4.0,-999.0,92,-99.99,,,0.00,weatherlink.com 1.10,2013-05-01 11:02:00,
2013-05-01 07:17:00,73.6,71.0,29.91,ESE,121,0.0,-999.0,92,-99.99,,,0.00,weatherlink.com 1.10,2013-05-01 11:17:00,
2013-05-01 07:32:00,73.6,71.0,29.91,ESE,122,2.0,-999.0,92,-99.99,,,0.00,weatherlink.com 1.10,2013-05-01 11:32:00,
2013-05-01 07:47:00,73.6,71.0,29.91,ESE,107,4.0,-999.0,92,-99.99,,,0.00,weatherlink.com 1.10,2013-05-01 11:47:00,
2013-05-01 08:02:00,73.5,71.0,29.92,East,88,2.0,-999.0,92,-99.99,,,0.00,weatherlink.com 1.10,2013-05-01 12:02:00,
2013-05-01 08:17:00,73.6,71.0,29.91,SSE,155,5.0,-999.0,92,-99.99,,,0.00,weatherlink.com 1.10,2013-05-01 12:17:00,
2013-05-01 08:32:00,73.9,72.0,29.91,East,95,3.0,-999.0,92,-99.99,,,0.00,weatherlink.com 1.10,2013-05-01 12:32:00,
2013-05-01 08:47:00,73.9,71.0,29.92,ESE,121,2.0,-999.0,90,-99.99,,,0.00,weatherlink.com 1.10,2013-05-01 12:47:00,
2013-05-01 09:02:00,74.2,71.0,29.93,SE,126,2.0,-999.0,89,-99.99,,,0.00,weatherlink.com 1.10,2013-05-01 13:02:00,
2013-05-01 09:17:00,74.5,71.0,29.93,SE,128,2.0,-999.0,89,-99.99,,,0.00,weatherlink.com 1.10,2013-05-01 13:17:00,
2013-05-01 09:32:00,74.5,71.0,29.94,SE,138,2.0,-999.0,88,-99.99,,,0.00,weatherlink.com 1.10,2013-05-01 13:32:00,
2013-05-01 09:47:00,74.7,71.0,29.94,ESE,114,1.0,-999.0,89,-99.99,,,0.00,weatherlink.com 1.10,2013-05-01 13:47:00,
2013-05-01 10:02:00,74.8,71.0,29.95,ESE,119,2.0,-999.0,89,-99.99,,,0.00,weatherlink.com 1.10,2013-05-01 14:02:00,
2013-05-01 10:17:00,74.9,71.0,29.95,East,100,5.0,-999.0,88,-99.99,,,0.00,weatherlink.com 1.10,2013-05-01 14:17:00,
2013-05-01 10:32:00,75.0,72.0,29.95,ESE,122,4.0,-999.0,89,-99.99,,,0.00,weatherlink.com 1.10,2013-05-01 14:32:00,
2013-05-01 10:47:00,74.1,71.0,29.95,East,83,6.0,-999.0,91,-99.99,,,0.00,weatherlink.com 1.10,2013-05-01 14:47:00,
2013-05-01 11:02:00,73.8,72.0,29.95,East,87,6.0,-999.0,93,-99.99,,,0.02,weatherlink.com 1.10,2013-05-01 15:02:00,
2013-05-01 11:17:00,74.1,72.0,29.95,East,87,7.0,-999.0,93,-99.99,,,0.03,weatherlink.com 1.10,2013-05-01 15:17:00,
2013-05-01 11:32:00,74.4,72.0,29.95,East,89,7.0,-999.0,93,-99.99,,,0.04,weatherlink.com 1.10,2013-05-01 15:32:00,
2013-05-01 11:47:00,74.4,72.0,29.95,East,85,5.0,-999.0,93,-99.99,,,0.04,weatherlink.com 1.10,2013-05-01 15:47:00,
2013-05-01 12:02:00,74.4,73.0,29.95,East,86,7.0,-999.0,94,-99.99,,,0.05,weatherlink.com 1.10,2013-05-01 16:02:00,
2013-05-01 12:17:00,74.6,73.0,29.94,East,94,5.0,-999.0,94,-99.99,,,0.06,weatherlink.com 1.10,2013-05-01 16:17:00,
2013-05-01 12:32:00,74.7,73.0,29.94,East,88,10.0,-999.0,94,-99.99,,,0.06,weatherlink.com 1.10,2013-05-01 16:32:00,
2013-05-01 12:47:00,74.8,73.0,29.93,East,86,8.0,-999.0,94,-99.99,,,0.06,weatherlink.com 1.10,2013-05-01 16:47:00,
2013-05-01 13:02:00,75.1,73.0,29.93,East,86,10.0,-999.0,93,-99.99,,,0.07,weatherlink.com 1.10,2013-05-01 17:02:00,
2013-05-01 13:17:00,75.3,74.0,29.93,East,86,8.0,-999.0,94,-99.99,,,0.08,weatherlink.com 1.10,2013-05-01 17:17:00,
2013-05-01 13:32:00,75.1,73.0,29.92,East,88,7.0,-999.0,94,-99.99,,,0.08,weatherlink.com 1.10,2013-05-01 17:32:00,
2013-05-01 13:47:00,75.2,73.0,29.92,East,84,9.0,-999.0,93,-99.99,,,0.08,weatherlink.com 1.10,2013-05-01 17:47:00,
2013-05-01 14:02:00,75.1,73.0,29.92,East,79,10.0,-999.0,94,-99.99,,,0.09,weatherlink.com 1.10,2013-05-01 18:02:00,
2013-05-01 14:17:00,75.2,73.0,29.91,East,88,10.0,-999.0,94,-99.99,,,0.09,weatherlink.com 1.10,2013-05-01 18:17:00,
2013-05-01 14:32:00,75.1,73.0,29.91,East,98,7.0,-999.0,94,-99.99,,,0.09,weatherlink.com 1.10,2013-05-01 18:32:00,
2013-05-01 14:47:00,74.9,73.0,29.91,SSE,167,4.0,-999.0,95,-99.99,,,0.09,weatherlink.com 1.10,2013-05-01 18:47:00,
2013-05-01 15:02:00,70.0,68.0,29.91,South,176,7.0,-999.0,93,-99.99,,,0.09,weatherlink.com 1.10,2013-05-01 19:02:00,
2013-05-01 15:17:00,69.1,68.0,29.91,SSE,163,2.0,-999.0,95,-99.99,,,0.10,weatherlink.com 1.10,2013-05-01 19:17:00,
2013-05-01 15:32:00,69.2,68.0,29.90,SSE,163,0.0,-999.0,95,-99.99,,,0.10,weatherlink.com 1.10,2013-05-01 19:32:00,
2013-05-01 15:47:00,69.3,68.0,29.90,SSE,162,2.0,-999.0,95,-99.99,,,0.10,weatherlink.com 1.10,2013-05-01 19:47:00,
2013-05-01 16:02:00,69.4,68.0,29.90,SE,125,1.0,-999.0,95,-99.99,,,0.11,weatherlink.com 1.10,2013-05-01 20:02:00,
2013-05-01 16:17:00,69.6,69.0,29.89,East,98,2.0,-999.0,96,-99.99,,,0.11,weatherlink.com 1.10,2013-05-01 20:17:00,
2013-05-01 16:32:00,69.8,69.0,29.89,NE,56,4.0,-999.0,96,-99.99,,,0.11,weatherlink.com 1.10,2013-05-01 20:32:00,
2013-05-01 16:47:00,69.9,69.0,29.89,NE,46,7.0,-999.0,96,-99.99,,,0.11,weatherlink.com 1.10,2013-05-01 20:47:00,
2013-05-01 17:02:00,70.0,69.0,29.89,ENE,59,7.0,-999.0,96,-99.99,,,0.11,weatherlink.com 1.10,2013-05-01 21:02:00,
2013-05-01 17:17:00,70.1,69.0,29.90,East,88,6.0,-999.0,97,-99.99,,,0.11,weatherlink.com 1.10,2013-05-01 21:17:00,
2013-05-01 17:32:00,70.2,69.0,29.90,East,89,5.0,-999.0,97,-99.99,,,0.11,weatherlink.com 1.10,2013-05-01 21:32:00,
2013-05-01 17:47:00,70.0,69.0,29.90,East,94,12.0,-999.0,96,-99.99,,,0.12,weatherlink.com 1.10,2013-05-01 21:47:00,
2013-05-01 18:02:00,70.0,69.0,29.90,ENE,76,9.0,-999.0,96,-99.99,,,0.12,weatherlink.com 1.10,2013-05-01 22:02:00,
2013-05-01 18:17:00,70.0,69.0,29.90,ENE,70,6.0,-999.0,96,-99.99,,,0.12,weatherlink.com 1.10,2013-05-01 22:17:00,
2013-05-01 18:32:00,69.5,68.0,29.90,ENE,59,5.0,-999.0,95,-99.99,,,0.12,weatherlink.com 1.10,2013-05-01 22:32:00,
2013-05-01 18:47:00,69.4,68.0,29.90,ENE,65,7.0,-999.0,95,-99.99,,,0.12,weatherlink.com 1.10,2013-05-01 22:47:00,
2013-05-01 19:02:00,69.7,69.0,29.90,ENE,78,7.0,-999.0,96,-99.99,,,0.12,weatherlink.com 1.10,2013-05-01 23:02:00,
2013-05-01 19:17:00,69.7,69.0,29.90,ENE,76,6.0,-999.0,96,-99.99,,,0.12,weatherlink.com 1.10,2013-05-01 23:17:00,
2013-05-01 19:32:00,69.8,69.0,29.89,East,86,11.0,-999.0,96,-99.99,,,0.12,weatherlink.com 1.10,2013-05-01 23:32:00,
2013-05-01 19:47:00,69.9,69.0,29.90,East,91,7.0,-999.0,96,-99.99,,,0.12,weatherlink.com 1.10,2013-05-01 23:47:00,
2013-05-01 20:02:00,70.2,69.0,29.89,ESE,115,2.0,-999.0,96,-99.99,,,0.12,weatherlink.com 1.10,2013-05-02 00:02:00,
2013-05-01 20:17:00,69.9,69.0,29.90,ESE,105,9.0,-999.0,96,-99.99,,,0.12,weatherlink.com 1.10,2013-05-02 00:17:00,
2013-05-01 20:32:00,69.3,68.0,29.91,ESE,114,3.0,-999.0,95,-99.99,,,0.12,weatherlink.com 1.10,2013-05-02 00:32:00,
2013-05-01 20:47:00,69.1,68.0,29.91,ENE,59,3.0,-999.0,95,-99.99,,,0.13,weatherlink.com 1.10,2013-05-02 00:47:00,
2013-05-01 21:02:00,69.0,68.0,29.91,SE,131,6.0,-999.0,95,-99.99,,,0.13,weatherlink.com 1.10,2013-05-02 01:02:00,
2013-05-01 21:17:00,69.2,68.0,29.92,ESE,107,3.0,-999.0,95,-99.99,,,0.13,weatherlink.com 1.10,2013-05-02 01:17:00,
2013-05-01 21:32:00,69.2,68.0,29.93,East,92,3.0,-999.0,95,-99.99,,,0.13,weatherlink.com 1.10,2013-05-02 01:32:00,
2013-05-01 21:47:00,69.5,68.0,29.92,East,85,9.0,-999.0,95,-99.99,,,0.13,weatherlink.com 1.10,2013-05-02 01:47:00,
2013-05-01 22:02:00,69.5,68.0,29.91,East,86,12.0,-999.0,95,-99.99,,,0.13,weatherlink.com 1.10,2013-05-02 02:02:00,
2013-05-01 22:17:00,69.7,68.0,29.91,East,90,13.0,-999.0,94,-99.99,,,0.13,weatherlink.com 1.10,2013-05-02 02:17:00,
2013-05-01 22:32:00,69.9,68.0,29.92,East,82,12.0,-999.0,92,-99.99,,,0.13,weatherlink.com 1.10,2013-05-02 02:32:00,
2013-05-01 22:47:00,69.8,67.0,29.91,ENE,76,10.0,-999.0,91,-99.99,,,0.13,weatherlink.com 1.10,2013-05-02 02:47:00,
2013-05-01 23:02:00,70.3,68.0,29.92,East,84,5.0,-999.0,91,-99.99,,,0.13,weatherlink.com 1.10,2013-05-02 03:02:00,
2013-05-01 23:17:00,70.3,67.0,29.92,East,79,5.0,-999.0,90,-99.99,,,0.13,weatherlink.com 1.10,2013-05-02 03:17:00,
2013-05-01 23:32:00,70.3,67.0,29.92,East,80,6.0,-999.0,90,-99.99,,,0.13,weatherlink.com 1.10,2013-05-02 03:32:00,
2013-05-01 23:47:00,70.3,68.0,29.93,ENE,73,8.0,-999.0,91,-99.99,,,0.13,weatherlink.com 1.10,2013-05-02 03:47:00,